Regional Weather Roundup
Issued by NWS Newport/Morehead, NC

Current Version | Previous Version | Graphics & Text | Print | Product List | Glossary Off
Versions: 1 2 3 4 5 6 7 8 9 10 11 12 13 14 15 16 17 18 19 20 21 22 23 24 25 26 27 28 29 30 31 32 33 34 35 36 37 38 39 40 41 42 43 44 45 46 47 48 49 50
690 ASUS42 KMHX 231025 RWRMHX WEATHER ROUNDUP FOR EASTERN NORTH CAROLINA NATIONAL WEATHER SERVICE NEWPORT/MOREHEAD CITY NC 500 AM EST FRI FEB 23 2018 NOTE: "FAIR" INDICATES FEW OR NO CLOUDS BELOW 12,000 FEET WITH NO SIGNIFICANT WEATHER AND/OR OBSTRUCTIONS TO VISIBILITY NCZ015>017-031-032-045>047-102-103-231100- NORTH COAST CITY SKY/WX TMP DP RH WIND PRES REMARKS EDENTON CLOUDY 49 48 97 N5 30.52R FOG ELIZABETH CITY CLOUDY 48 48 100 N10 30.51S FOG KITTY HAWK CLOUDY N/A N/A N/A N6 30.49R FOG MANTEO NOT AVBL $$ NCZ045>047-081-094-103-104-231100- CENTRAL COAST CITY SKY/WX TMP DP RH WIND PRES REMARKS FRISCO CLOUDY 56 56 100 N8 30.46R $$ NCZ095-097-098-100-101-231100- SOUTHERN COAST CITY SKY/WX TMP DP RH WIND PRES REMARKS BEAUFORT FOG 57 56 96 E3 30.44R VSB 1/2 CEDAR ISLAND NOT AVBL JACKSONVILLE FOG 56 56 100 CALM 30.44R VSB 1/2 PINEY ISLAND NOT AVBL WILMINGTON FOG 54 54 100 CALM 30.44R VSB 1/2 $$ NCZ011>013-027>030-043-044-078>080-089-090>093-098-231100- COASTAL PLAIN CITY SKY/WX TMP DP RH WIND PRES REMARKS AHOSKIE CLOUDY 45 45 100 NE6 30.52S FOG CLINTON CLOUDY 59 59 100 CALM 30.45R VSB 3/4 ELIZABETHTOWN NOT AVBL GOLDSBORO CLOUDY 61 61 100 NE5 30.44R GREENVILLE CLOUDY 52 52 100 NE7 30.49R HAVELOCK PTCLDY 56 56 100 E3 30.45R FOG KENANSVILLE FOG 57 57 100 CALM 30.45R VSB<1/4 KINSTON CLOUDY 62 62 100 N6 30.46R NEW BERN MOCLDY 61 61 100 N5 30.46R RICHLANDS FOG 53 53 100 CALM 30.45R VSB 1/4 ROCKY MOUNT CLOUDY 51 50 96 NE10 30.48S FOG WASHINGTON CLOUDY 51 49 95 NE8 30.49S FOG WHITEVILLE FOG 56 56 98 CALM 30.43R VSB 3/4 $$ AMZ130-135-150-152-154-156-158-170-250-252-270-ANZ085-086-088-633-658-670-231100- MARINE OBSERVATIONS STATION/POSITION TIME TEMP WIND PRES WAVE SWELL AIR SEA DIR/SP/G HT/PER HT/PER (UTC) (F) (DEG/KT/KT) (MB) (FT/S) (FT/S) CHESAPEAKE LIGHT NOT AVBL 64 E VA BEACH 0950 50 50 340/ 10/ 12 1032.3 6/ 8 5/ 8 DUCK 1000 46 10/ 18/ 21 1032.0 2 E DUCK 1000 46 N/A 4/15 2/15 OREGON INLET 1000 47 57 340/ 11/ 13 1032.3 13E OREGON INLT 0948 49 N/A 4/14 3/14 HATTERAS CG 1000 55 61 20/ 14/ 15 1031.3 DIAMOND BUOY 1010 62 74 360/ 10/ 14 1031.6 CAPE LOOKOUT 1000 150/ 4/ 4 1031.1 BEAUFORT LAB 1000 59 60 CALM / 1 1031.1 30 SE NEW RVR IN 0908 69 70 260/ 2/ 4 1030.6 30 SE NEW RVR IN 1000 70 N/A 4/ 8 2/15 27 SE WRIGHTSVLE 0908 68 68 210/ 4/ 6 1030.4 5 SE WRIGHTSVLE NOT AVBL 225 S CAPE HAT 0950 71 73 100/ 10/ 12 1031.3 5/ 9 5/ 9 41 SE CHARLESTON 1010 69 68 70/ 4/ 6 1029.5 $$

USA.gov is the U.S. government's official web portal to all federal, state and local government web resources and services.